Regional Weather Roundup
Issued by NWS

Home | Current Version | Previous Version | Text Only | Print | Product List | Glossary Off
Versions: 1 2 3 4 5 6 7 8 9 10 11 12 13 14 15 16 17 18 19 20 21 22 23 24 25 26 27 28 29 30 31 32 33 34 35 36 37 38 39 40 41 42 43 44 45 46 47 48 49 50

569
ASUS43 KOAX 272110
RWRNE

WEATHER ROUNDUP FOR NEBRASKA
NATIONAL WEATHER SERVICE OMAHA NE
400 PM CDT TUE SEP 27 2016

NOTES: SATELLITE DATA IS BEING USED TO AUGMENT CLOUD COVER ABOVE
       12000 FEET.
       "FAIR" INDICATES FEW OR NO CLOUDS BELOW 12,000 FEET WITH NO
       SIGNIFICANT WEATHER AND/OR OBSTRUCTIONS TO VISIBILITY.

  * THESE STATIONS DO NOT REPORT WEATHER SUCH AS RAIN...SNOW OR FOG.

NEZ001>004-019>022-054>056-272200-
NEBRASKA PANHANDLE

CITY           SKY/WX    TMP DP  RH WIND       PRES   REMARKS
SCOTTSBLUFF    SUNNY     83  37  19 VRB5      30.07F
ALLIANCE       SUNNY     84  32  15 NW8G18    30.04F
CHADRON        SUNNY     85  34  16 NW12G21   30.00F
KIMBALL        SUNNY     80  36  20 CALM      30.12F
SIDNEY         SUNNY     84  33  16 W7        30.09F
$$

NEZ057>060-069>072-079>082-272200-
SOUTHWEST NEBRASKA

CITY           SKY/WX    TMP DP  RH WIND       PRES   REMARKS
NORTH PLATTE   SUNNY     86  44  23 W10       29.97F
IMPERIAL       SUNNY     85  35  16 W8G20     30.02F
LEXINGTON      SUNNY     84  45  25 NW6       29.96F
MCCOOK         SUNNY     84  43  23 W14G20    29.99F
OGALLALA       SUNNY     88  30  12 NW9       30.02F
$$

NEZ005>010-023>029-035>040-094-272200-
NORTH CENTRAL NEBRASKA

CITY           SKY/WX    TMP DP  RH WIND       PRES   REMARKS
VALENTINE      SUNNY     83  34  17 NW17G24   29.95F
AINSWORTH      SUNNY     81  44  27 NW15      29.95F
BROKEN BOW     SUNNY     86  43  22 NW16      29.94F
O`NEILL        SUNNY     80  39  22 W9        29.92F
ORD            SUNNY     82  42  24 NW20G25   29.91F
THEDFORD       SUNNY     85  43  23 NW15G21   29.97F
$$

NEZ041-046>049-061>064-073>077-083>087-272200-
SOUTH CENTRAL NEBRASKA

CITY           SKY/WX    TMP DP  RH WIND       PRES   REMARKS
GRAND ISLAND   SUNNY     82  44  26 NW17      29.93F
AURORA         SUNNY     80  44  27 W8G17     29.92F
HASTINGS       SUNNY     82  44  26 NW9       29.95F
HEBRON         SUNNY     81  44  26 W8        29.93F
HOLDREGE       SUNNY     81  41  23 W9        29.97F
KEARNEY *      SUNNY     82  43  24 W10G25    29.94F
YORK           SUNNY     79  45  29 W8        29.93F
$$

NEZ011>018-030>034-042>045-272200-
NORTHEAST NEBRASKA

CITY           SKY/WX    TMP DP  RH WIND       PRES   REMARKS
NORFOLK        SUNNY     78  43  28 NW8G18    29.90F
ALBION         SUNNY     79  43  27 W10       29.91F
BLAIR          SUNNY     77  43  30 W9        29.90F
FREMONT        SUNNY     78  45  30 NW15      29.90F
TEKAMAH        SUNNY     78  40  25 NW8       29.88F
WAYNE          SUNNY     75  45  33 NW15G24   29.91F
$$

NEZ050>053-065>068-078-088>093-272200-
SOUTHEAST NEBRASKA

CITY           SKY/WX    TMP DP  RH WIND       PRES   REMARKS
LINCOLN        SUNNY     81  45  28 W12       29.91F
OMAHA EPPLEY   SUNNY     79  42  26 NW13      29.89F
BEATRICE       SUNNY     81  49  32 NW9       29.91F
FALLS CITY     SUNNY     77  49  37 NW10      29.90F
NEBRASKA CITY  SUNNY     77  29  16 W6        29.90F
PLATTSMOUTH    SUNNY     78  33  19 W7G16     29.90F
$$

NEZ044-045-051>053-067-272200-
OMAHA AREA

CITY           SKY/WX    TMP DP  RH WIND       PRES   REMARKS
OMAHA EPPLEY   SUNNY     79  42  26 NW13      29.89F
BLAIR          SUNNY     77  43  30 W9        29.90F
FREMONT        SUNNY     78  45  30 NW15      29.90F
MILLARD        SUNNY     77  45  32 W7        29.89F
OFFUTT AFB     SUNNY     77  45  32 W8        29.88F
PLATTSMOUTH    SUNNY     78  33  19 W7G16     29.90F
WAHOO          FAIR      80  41  25 W9        29.90F
$$




USA.gov is the U.S. government's official web portal to all federal, state and local government web resources and services.